TimeEDT,TemperatureF,Dew PointF,Humidity,Sea Level PressureIn,VisibilityMPH,Wind Direction,Wind SpeedMPH,Gust SpeedMPH,PrecipitationIn,Events,Conditions,WindDirDegrees,DateUTC
12:53 AM,50.0,48.0,93,30.17,9.0,Calm,Calm,-,N/A,,Clear,0,2012-10-23 04:53:00
2:53 AM,50.0,46.9,89,30.13,8.0,Calm,Calm,-,N/A,,Clear,0,2012-10-23 06:53:00
3:53 AM,50.0,48.0,93,30.12,7.0,Calm,Calm,-,N/A,,Clear,0,2012-10-23 07:53:00
4:53 AM,51.1,50.0,96,30.11,9.0,Calm,Calm,-,N/A,,Clear,0,2012-10-23 08:53:00
5:53 AM,53.1,50.0,89,30.12,10.0,Calm,Calm,-,N/A,,Clear,0,2012-10-23 09:53:00
6:53 AM,54.0,51.1,90,30.13,10.0,Calm,Calm,-,N/A,,Clear,0,2012-10-23 10:53:00
7:53 AM,55.0,52.0,89,30.14,8.0,Calm,Calm,-,N/A,,Clear,0,2012-10-23 11:53:00
8:53 AM,61.0,55.0,81,30.16,10.0,ENE,3.5,-,N/A,,Clear,60,2012-10-23 12:53:00
9:53 AM,68.0,57.9,70,30.17,10.0,Variable,5.8,-,N/A,,Clear,0,2012-10-23 13:53:00
11:53 AM,77.0,61.0,58,30.16,10.0,East,6.9,-,N/A,,Clear,80,2012-10-23 15:53:00
1:53 PM,80.1,57.9,47,30.11,10.0,East,3.5,-,N/A,,Partly Cloudy,80,2012-10-23 17:53:00
2:53 PM,79.0,57.0,47,30.09,10.0,East,3.5,-,N/A,,Scattered Clouds,100,2012-10-23 18:53:00
3:53 PM,80.1,55.9,43,30.08,10.0,ENE,3.5,-,N/A,,Mostly Cloudy,60,2012-10-23 19:53:00
4:53 PM,82.0,55.9,41,30.08,10.0,ESE,8.1,-,N/A,,Clear,110,2012-10-23 20:53:00
5:53 PM,80.1,55.9,43,30.08,10.0,East,3.5,-,N/A,,Clear,80,2012-10-23 21:53:00
7:53 PM,69.1,60.1,73,30.10,10.0,East,3.5,-,N/A,,Clear,100,2012-10-23 23:53:00
8:53 PM,68.0,60.1,76,30.11,10.0,East,4.6,-,N/A,,Clear,100,2012-10-24 00:53:00
9:53 PM,66.0,61.0,84,30.13,10.0,East,4.6,-,N/A,,Clear,100,2012-10-24 01:53:00
10:53 PM,64.9,61.0,87,30.13,10.0,East,3.5,-,N/A,,Clear,100,2012-10-24 02:53:00
11:53 PM,64.0,61.0,90,30.13,8.0,Calm,Calm,-,N/A,,Clear,0,2012-10-24 03:53:00